Weather History for KNUQ - November, 2014

Change the Weather History Date:

Monday, November 3, 2014

  Actual Average Record
Temperature  
Mean Temperature 57 °F 60 °F  
Max Temperature 70 °F 69 °F 83 °F (1950)
Min Temperature 44 °F 50 °F 39 °F (1952)
Degree Days  
Heating Degree Days 8    
Month to date heating degree days 24  
Since 1 July heating degree days 55  
Cooling Degree Days 0    
Month to date cooling degree days 0  
Year to date cooling degree days 643  
Growing Degree Days 7 (Base 50)    
Moisture  
Dew Point 45 °F    
Average Humidity 60    
Maximum Humidity 93    
Minimum Humidity 26    
Precipitation  
Precipitation 0.00 in 0.05 in 0.45 in (1968)
Month to date precipitation 0.03 0.14  
Year to date precipitation 5.89 10.62  
Since 1 July precipitation 0.70 0.99  
Sea Level Pressure  
Sea Level Pressure 30.24 in    
Wind  
Wind Speed 2 mph (NNW)    
Max Wind Speed 13 mph    
Max Gust Speed 15 mph    
Visibility 10 miles    
Events      
T = Trace of Precipitation, MM = Missing Value Source: NWS Daily Summary

Daily Weather History Graph

Daily Weather History Graph

Search for Another Location

Airport or City:

Trip Planner

Search our weather history database for the weather conditions in past years. The results will help you decide how hot, cold, wet, or windy it might be!

Date:

Astronomy

Nov. 03, 2014 Rise Set
Actual Time 6:35 AM PST 5:07 PM PST
Civil Twilight 6:07 AM PST 5:35 PM PST
Nautical Twilight 5:36 AM PST 6:05 PM PST
Astronomical Twilight 5:06 AM PST 6:36 PM PST
Moon 3:16 PM PST (11/3) 2:56 AM PST (11/3)
Length of Visible Light 11h 27m
Length of Day
10h 32m
Waxing Gibbous, 88% of the Moon is Illuminated
Nov 3
Waxing Gibbous
Nov 6
Full
Nov 14
Last Quarter
Nov 22
New
Nov 29
First Quarter

Hourly Weather History & Observations

Time (PST) Temp. Dew Point Humidity Pressure Visibility Wind Dir Wind Speed Gust Speed Precip Events Conditions
12:56 AM 48.9 °F 43.0 °F 80% 30.19 in 10.0 mi Calm Calm - N/A   Clear
1:56 AM 48.9 °F 43.0 °F 80% 30.20 in 10.0 mi Calm Calm - N/A   Clear
2:56 AM 46.0 °F 42.1 °F 86% 30.20 in 10.0 mi Calm Calm - N/A   Clear
3:56 AM 45.0 °F 41.0 °F 86% 30.20 in 10.0 mi Calm Calm - N/A   Clear
4:56 AM 46.0 °F 42.1 °F 86% 30.20 in 10.0 mi Calm Calm - N/A   Clear
5:56 AM 46.0 °F 44.1 °F 93% 30.22 in 10.0 mi Calm Calm - N/A   Clear
6:56 AM 46.9 °F 44.1 °F 90% 30.24 in 10.0 mi Calm Calm - N/A   Clear
7:56 AM 50.0 °F 46.9 °F 89% 30.26 in 10.0 mi Calm Calm - N/A   Clear
8:56 AM 57.0 °F 43.0 °F 59% 30.26 in 10.0 mi Calm Calm - N/A   Clear
9:56 AM 62.1 °F 44.1 °F 52% 30.27 in 10.0 mi Calm Calm - N/A   Clear
10:56 AM 64.9 °F 41.0 °F 42% 30.26 in 10.0 mi Calm Calm - N/A   Clear
11:56 AM 66.9 °F 37.0 °F 33% 30.25 in 10.0 mi Calm Calm - N/A   Clear
12:56 PM 69.1 °F 34.0 °F 27% 30.22 in 10.0 mi NNW 5.8 mph - N/A   Clear
1:56 PM 69.1 °F 36.0 °F 30% 30.21 in 10.0 mi NW 5.8 mph - N/A   Clear
2:56 PM 69.1 °F 35.1 °F 29% 30.21 in 10.0 mi NNW 8.1 mph - N/A   Clear
3:56 PM 64.9 °F 48.9 °F 56% 30.22 in 10.0 mi NNW 10.4 mph - N/A   Clear
4:56 PM 62.1 °F 55.0 °F 78% 30.22 in 10.0 mi North 10.4 mph - N/A   Clear
5:56 PM 60.1 °F 57.0 °F 90% 30.23 in 10.0 mi NNW 9.2 mph - N/A   Clear
6:56 PM 57.9 °F 53.1 °F 84% 30.25 in 10.0 mi NNW 6.9 mph - N/A   Clear
7:56 PM 57.9 °F 53.1 °F 84% 30.26 in 10.0 mi Calm Calm - N/A   Clear
8:56 PM 57.0 °F 52.0 °F 83% 30.27 in 10.0 mi Calm Calm - N/A   Clear
9:56 PM 55.0 °F 50.0 °F 83% 30.28 in 10.0 mi Calm Calm - N/A   Clear
10:56 PM 54.0 °F 50.0 °F 86% 30.29 in 10.0 mi Calm Calm - N/A   Clear
11:56 PM 52.0 °F 48.9 °F 89% 30.29 in 10.0 mi Calm Calm - N/A   Clear